Tracking 30995 objects as of 6-Jul-2025
HD Live streaming from Space Station
objects crossing your sky now

NOAA 16 DEB

Track NOAA 16 DEB now!
10-day predictions


NORAD ID: 41374
Int'l Code: 2000-055JT
Perigee: 814.6 km
Apogee: 866.1 km
Inclination: 98.7 °
Period: 101.6 minutes
Semi major axis: 7211 km
RCS: Unknown
Launch date: September 21, 2000
Source: United States (US)
Launch site: AIR FORCE WESTERN TEST RANGE (AFWTR)

Note: This is SATELLITE DEBRIS
Your satellite tracking list
Your tracking list is empty




NASA's NSSDC Master Catalog

Two Line Element Set (TLE):
1 41374U 00055JT  25186.08379121  .00002161  00000-0  10760-2 0  9998
2 41374  98.7328 235.9353 0035706  86.5794 273.9465 14.17683248486242
Source of the keplerian elements: AFSPC